Damián Kirstein fue el más rápido en la primera tanda de entrenamientos de la Clase 2 del Turismo Nacional, en el marco de la 10ª fecha de la temporada. El piloto chaqueño marcó un tiempo de 1:28.623 para ser la referencia inicial con el Peugeot 208 que atiende el FF Racing.

En el Autódromo Parque de la Velocidad de San Jorge, el segundo lugar quedó en manos de Walter López, a 27 centésimas; mientras que Maximiliano Bestani finalizó en el tercer puesto, a 34 centésimas de la punta.

Por su parte, las diez primeras posiciones las completaron Facundo Leanez, Joel Borgobello, Ever Franetovich, Gastón Grasso, Miguel Ciaurro, Gerónimo Núñez y Alejo Borgiani.

    1er. Entrenamiento TN Clase 2 – San Jorge    

Pos. Piloto Marca Tiempo Dif.
1 26 Damian Kirstein Peugeot 208 1:28.623
2 43 Walter López Nissan March 1:28.894 0.271
3 7 Maximiliano Bestani Nissan March 1:28.971 0.348
4 31 Facundo Leanez Toyota Etios 1:28.982 0.359
5 13 Joel Borgobello VW Trend 1:29.031 0.408
6 14 Ever Franetovich Fiat Palio 1:29.054 0.431
7 5 Gastón Grasso Toyota Etios 1:29.086 0.463
8 6 Miguel Ciaurro VW Trend 1:29.114 0.491
9 120 Gerónimo Núñez Nissan March 1:29.121 0.498
10 36 Alejo Borgiani VW Trend 1:29.355 0.732
11 11 Gastón Iansa Ford Fiesta Kinetic 1:29.375 0.752
12 150 Damián Markel Toyota Etios 1:29.378 0.755
13 25 Sebastián Pérez Chevrolet Onix 1:29.395 0.772
14 18 Marcos Fernández Nissan March 1:29.617 0.994
15 69 Agustín Herrera Renault Clio 1:29.664 1.041
16 63 Renzo Testa Fiat Palio 1:29.673 1.050
17 9 Juan Martín Eluchans Toyota Etios 1:29.724 1.101
18 32 Sergio Fernández Nissan March 1:29.821 1.198
19 73 Lucas Bagnera Renault Clio 1:29.896 1.273
20 178 Ramiro Alcaine Toyota Etios 1:29.910 1.287
21 141 Juan Pablo Rotondo Ford Fiesta Kinetic 1:29.958 1.335
22 66 Martín Alessi Renault Clio 1:29.977 1.354
23 72 Lucas Tedeschi Toyota Etios 1:30.063 1.440
24 112 Damián Romero Toyota Etios 1:30.096 1.473
25 65 Fernando Gómez Fredes Nissan March 1:30.128 1.505
26 2 Juan Pablo Pastori Toyota Etios 1:30.220 1.597
27 78 Alejandro Weimann Toyota Etios 1:30.248 1.625
28 100 Ian Reutemann Ford Fiesta Kinetic 1:30.575 1.952
29 35 Diego Leanez Toyota Etios 1:30.626 2.003
30 99 Luciano González Renault Clio 1:30.743 2.120
31 199 Emiliano Giacoponi Chevrolet Corsa 1:30.791 2.168
32 24 Juan Ignacio Canela Ford Fiesta Kinetic 1:31.302 2.679
33 21 Gabriel Scordia Ford Fiesta Kinetic 1:31.717 3.094
34 114 Matías Signorelli Nissan March 1:31.908 3.285
35 47 Ignacio Procacitto VW Trend 1:31.935 3.312
36 79 Andrés Calderón VW Trend 1:31.983 3.360
37 54 Facundo Rotondo Ford Fiesta Kinetic 1:32.274 3.651
38 52 Gustavo Acuña VW Trend 1:33.349 4.726
39 39 Alejandro Valderrey Fiat Palio 7:10.495 5:41.872
40 1 Nicolás Posco Ford Fiesta Kinetic 13:28.849 12:00.226
41 159 Agustín Bonomo DS3 0

S.B